Vertical_Velocity
2 -6 -7 -2 -1 -12 -11 -4 8 -6 1 -12 10 -2 -1 -3 -3 -2 -6 -5 1 -3 1 -2 -1 -0 -1 -2 -2 -2 -1 -1 -1 1 1 0 -1 1 -0 -1 -1 1 3 0
-1 2 -3 -5 -0 -8 -12 1 -3 -1 -6 3 0 -6 1 -2 -3 1 -4 -2 -2 -3 -3 2 -2 -5 -5 -3 -2 -1 -1 1 1 -1 -3 -2 -2 -0 -0 -2 -1 -2 -0 1
0 0 3 -1 -1 3 -14 -5 -8 -7 1 -0 -1 -4 -6 -1 -4 -3 -1 -0 0 -2 -2 -3 -3 -6 -5 -2 -2 -0 -2 -1 -1 -1 0 1 2 -1 -1 -0 -3 -0 2 -0
4 3 -2 2 -0 4 -2 -10 3 -2 -0 -2 -4 1 -5 0 -1 -3 -2 -4 -4 -2 -3 -3 -2 -1 -0 -2 -5 -5 -1 -1 -1 -1 0 -1 0 1 1 -2 0 -0 -2 -0
-0 3 6 -0 0 0 3 -4 -8 -0 -3 0 -1 -3 -3 -3 -3 -3 -3 -4 -1 -2 -4 -3 -4 -4 -4 0 0 -0 -1 -2 -1 -2 -2 1 4 1 1 -3 -1 -2 -2 -0
2 -3 -1 9 4 1 2 1 3 -1 -1 3 2 -3 -2 -4 -4 -5 -4 -4 -4 -3 -2 -3 -2 -2 -2 -2 -2 -2 -2 -1 -1 -1 -3 -4 -3 -3 0 -2 -2 -0 1 -1
0 -1 -1 1 6 6 0 4 1 1 5 1 0 5 -0 -3 -4 -5 -5 -4 -2 -3 -3 -2 -1 -0 -1 -2 -1 -2 -1 -0 -1 -1 -1 -2 -1 -1 -1 -3 -1 -0 -1 -0
1 -4 -0 -4 2 3 5 -2 3 3 1 1 2 -2 -1 3 3 -1 -0 -0 0 -1 -1 -1 -1 -1 -0 1 1 1 1 1 -1 -1 -2 -1 -3 -2 0 2 0 1 -0 -1
2 1 -1 -2 -8 1 -1 5 5 5 1 2 -1 -2 2 1 0 -0 3 2 3 2 0 1 2 0 1 -1 -0 -1 1 1 2 1 -0 1 0 -0 -1 2 3 4 2 -1
-0 -0 2 2 0 -4 -1 -1 -2 5 5 -1 -1 -0 -1 -2 2 2 -0 -0 -0 2 3 -1 -1 1 1 -0 -0 0 -0 1 1 1 -0 -0 -2 -2 -2 -3 -4 -1 -1 -0
-2 -2 -1 1 1 -1 -2 -2 3 -0 2 5 4 1 -1 -3 -3 -3 -0 2 1 0 -2 -1 -1 -0 0 1 0 -0 -2 -2 -2 -2 -1 -1 -1 -1 -1 -0 -1 -3 -2 -2
1 -2 -2 -1 1 3 0 -2 1 -1 -2 0 0 2 3 -0 1 -1 -4 -3 -1 2 3 3 -0 -3 -2 -1 1 0 2 -1 -1 -2 -1 -1 -0 -1 -0 -0 -0 -1 0 -1
-3 -0 -3 -5 -2 0 0 1 -1 -2 -2 2 2 2 4 4 1 1 -1 -0 2 -1 -3 -1 3 3 4 -1 1 -1 1 2 -0 -3 -1 -1 -1 -2 -1 -1 -0 -0 0 0
1 -4 1 -1 -3 -3 0 -2 -1 1 -2 -4 -0 -2 -2 1 4 3 0 -3 -1 -0 0 2 1 -1 -1 6 2 7 -8 -0 -1 3 -2 0 -1 -0 -0 -1 -2 -1 -1 -2
-0 -1 -2 1 -3 -2 -1 -3 -0 -4 -4 1 -3 -2 -1 -3 -2 1 4 6 4 0 2 2 3 11 -8 -1 8 17 -6 6 -0 3 -3 3 -3 1 2 2 1 1 1 0
-1 2 -2 0 -2 -2 3 -2 -2 -3 -4 -5 -4 -5 -3 -0 -1 -3 -4 -2 -1 1 1 4 8 -1 -10 -3 25 15 -12 -5 3 8 3 1 2 -0 0 -1 -0 1 1 1
-1 0 3 -2 -1 -3 -3 -1 1 1 -1 -3 -1 -2 -3 -8 -1 -3 -3 -2 -4 3 2 8 3 7 -4 4 21 -32 -1 2 -0 10 -0 5 -1 2 2 0 -0 -1 -0 -2
-1 -1 1 -0 1 -1 -0 -4 -1 1 2 -2 -3 -3 -1 -1 -1 -2 -3 -4 -5 -2 -1 7 4 4 -7 -4 -5 0 -4 5 2 -1 4 5 -0 4 2 1 0 -1 -1 0
1 -3 1 -2 -1 -1 -3 -3 -4 -1 -2 1 -3 -3 -3 -3 -3 -1 -4 -5 -6 -0 -4 -9 2 -0 -5 -3 -4 -2 -3 -1 3 -2 2 2 3 2 2 2 1 1 0 -1
5 4 -1 2 -1 1 1 -1 -3 -2 -0 1 -0 -4 -4 -6 -4 -1 -5 -3 -3 -5 -4 -2 -3 0 -2 -2 2 3 -1 1 2 -0 5 5 2 4 3 1 0 1 1 0
-2 1 3 1 -0 -1 -2 1 -0 -2 2 1 2 2 -1 1 -3 -3 -4 -8 -2 -5 -2 -8 -1 1 4 -0 -2 0 1 1 2 4 3 5 6 3 6 4 3 3 1 1
1 -0 -2 1 2 -0 -3 -0 -1 -2 -1 -1 -2 -0 0 0 -1 -4 -4 -4 -5 -10 -6 -9 -4 -1 1 2 -1 -2 -0 1 1 0 2 3 3 5 5 5 4 4 2 2
1 -1 -2 3 1 -2 6 2 -1 -7 -3 0 1 -3 -2 -3 -2 -3 -3 -8 -3 1 -6 -6 -8 -7 1 -0 3 -2 -1 0 3 3 0 -0 2 4 4 3 2 2 2 -1
1 -4 -8 -7 -4 6 10 -1 -1 -1 -6 -0 -0 -2 -1 -1 0 -5 -3 -4 -6 -1 -4 -2 -2 -4 -6 1 -2 0 -1 -2 2 2 5 4 3 2 2 1 0 0 -3 0
2 -5 -15 -2 14 6 1 -0 0 -1 -1 -1 -1 -3 -1 -1 -2 -3 -3 -7 -4 -2 -3 -4 -4 -3 -4 -4 -0 -1 -1 -2 -4 -1 -0 2 4 3 2 1 -0 2 0 -2
-6 -15 0 12 7 7 5 -3 2 4 -1 0 -1 -1 -2 -0 -1 3 -9 -2 -1 0 -5 -5 -3 -2 -3 -7 -5 -4 -4 -2 -0 1 1 0 -2 0 -1 -0 -2 -3 -1 2
-25 -8 22 21 7 7 -1 1 -4 1 5 3 -4 2 -5 -2 -3 7 -1 -1 -6 -3 1 -1 -4 -2 -3 -2 -5 -3 -1 -1 -0 -1 3 5 4 -1 -3 2 1 -2 -0 -1
Height
5664 5656 5651 5647 5642 5638 5632 5626 5632 5628 5629 5629 5632 5634 5636 5638 5640 5643 5645 5646 5649 5651 5654 5655 5656 5657 5657 5658 5658 5658 5657 5657 5656 5655 5653 5650 5648 5646 5643 5641 5639 5634 5631 5629
5678 5670 5664 5659 5655 5645 5645 5646 5643 5639 5640 5642 5643 5644 5646 5647 5648 5651 5652 5654 5656 5658 5658 5661 5660 5661 5662 5661 5661 5662 5661 5660 5659 5658 5657 5654 5652 5650 5647 5645 5642 5640 5637 5635
5688 5683 5676 5671 5667 5663 5655 5657 5656 5651 5652 5653 5654 5653 5654 5657 5657 5659 5660 5662 5662 5663 5663 5663 5665 5666 5666 5666 5666 5665 5664 5663 5661 5660 5658 5656 5655 5653 5650 5648 5645 5644 5642 5639
5701 5691 5686 5682 5679 5675 5669 5667 5665 5665 5665 5663 5662 5663 5662 5663 5666 5666 5667 5668 5668 5668 5668 5669 5669 5670 5670 5670 5670 5668 5667 5665 5663 5661 5660 5658 5656 5655 5652 5650 5648 5647 5645 5643
5709 5705 5698 5691 5688 5685 5682 5676 5676 5674 5674 5673 5670 5671 5670 5670 5671 5673 5673 5673 5673 5674 5674 5674 5673 5673 5673 5673 5672 5670 5668 5666 5664 5662 5659 5657 5655 5654 5652 5650 5649 5647 5646 5645
5717 5711 5707 5703 5697 5693 5691 5688 5684 5684 5683 5681 5679 5677 5677 5677 5677 5677 5677 5678 5678 5678 5679 5678 5678 5677 5676 5675 5674 5672 5669 5667 5665 5663 5660 5658 5658 5655 5653 5651 5649 5648 5648 5647
5720 5716 5714 5708 5705 5701 5697 5695 5692 5690 5689 5688 5688 5685 5682 5681 5681 5681 5682 5682 5681 5682 5680 5680 5680 5679 5678 5676 5675 5673 5671 5668 5666 5664 5661 5659 5657 5655 5654 5653 5651 5649 5648 5648
5725 5721 5717 5714 5710 5706 5702 5699 5698 5696 5694 5693 5691 5690 5690 5688 5686 5685 5684 5683 5683 5682 5682 5682 5681 5680 5679 5677 5675 5674 5671 5669 5667 5665 5662 5660 5657 5655 5654 5652 5652 5650 5648 5646
5730 5724 5718 5715 5714 5710 5706 5704 5701 5700 5699 5697 5695 5693 5693 5692 5691 5690 5689 5687 5685 5684 5683 5683 5682 5680 5679 5677 5675 5673 5671 5668 5667 5664 5662 5660 5657 5654 5652 5651 5650 5648 5647 5645
5733 5727 5720 5715 5711 5709 5709 5705 5703 5701 5700 5700 5698 5696 5695 5693 5693 5692 5690 5690 5689 5688 5686 5684 5682 5680 5678 5676 5675 5673 5670 5668 5666 5664 5661 5660 5657 5655 5653 5652 5653 5647 5646 5644
5733 5729 5723 5717 5711 5708 5705 5704 5702 5701 5700 5699 5698 5698 5697 5696 5694 5693 5692 5691 5689 5688 5687 5685 5683 5681 5679 5676 5673 5671 5669 5667 5665 5662 5660 5659 5655 5654 5652 5650 5647 5645 5643 5640
5731 5728 5724 5720 5714 5707 5702 5700 5700 5700 5698 5695 5696 5696 5696 5695 5693 5692 5691 5690 5688 5687 5685 5683 5681 5679 5678 5676 5673 5669 5667 5665 5662 5660 5657 5654 5652 5650 5648 5646 5643 5641 5639 5636
5729 5726 5723 5719 5716 5710 5704 5699 5696 5697 5697 5696 5694 5690 5690 5689 5688 5688 5688 5686 5685 5684 5682 5680 5678 5676 5673 5671 5669 5666 5664 5661 5658 5655 5653 5651 5648 5646 5644 5641 5639 5637 5634 5632
5725 5722 5720 5717 5715 5711 5706 5701 5697 5693 5692 5691 5691 5690 5688 5687 5685 5684 5682 5680 5680 5678 5677 5675 5672 5669 5667 5666 5663 5661 5657 5655 5653 5651 5648 5646 5643 5640 5638 5636 5633 5630 5628 5626
5720 5718 5715 5713 5711 5710 5707 5703 5699 5695 5693 5689 5687 5687 5686 5682 5679 5677 5676 5674 5672 5669 5668 5665 5663 5661 5657 5657 5656 5657 5648 5648 5645 5643 5640 5639 5636 5634 5631 5629 5626 5624 5621 5619
5713 5712 5711 5708 5706 5704 5703 5702 5701 5696 5692 5689 5687 5684 5681 5678 5676 5673 5669 5665 5663 5659 5656 5654 5652 5649 5646 5646 5649 5649 5635 5636 5636 5636 5631 5629 5628 5625 5623 5622 5619 5616 5613 5610
5704 5704 5704 5702 5700 5698 5698 5697 5695 5693 5690 5686 5684 5682 5680 5677 5673 5670 5665 5660 5655 5648 5644 5642 5638 5636 5632 5633 5633 5631 5625 5624 5625 5626 5623 5621 5617 5615 5614 5611 5609 5606 5604 5600
5695 5696 5696 5695 5693 5690 5690 5690 5689 5687 5685 5683 5679 5676 5674 5672 5669 5665 5660 5655 5648 5641 5634 5629 5625 5623 5619 5620 5619 5620 5619 5616 5615 5615 5613 5611 5609 5605 5603 5601 5599 5597 5594 5590
5683 5684 5686 5687 5685 5683 5681 5680 5680 5679 5679 5676 5674 5671 5669 5665 5662 5659 5656 5649 5642 5634 5626 5618 5610 5611 5606 5607 5607 5605 5605 5606 5604 5602 5601 5600 5599 5596 5593 5590 5588 5585 5582 5578
5675 5674 5673 5677 5677 5675 5673 5671 5671 5670 5669 5667 5666 5665 5662 5660 5656 5652 5649 5644 5636 5628 5620 5610 5604 5600 5593 5593 5592 5592 5591 5592 5590 5589 5589 5587 5586 5585 5583 5580 5576 5573 5570 5567
5664 5666 5663 5662 5664 5665 5664 5662 5662 5660 5660 5658 5656 5655 5653 5649 5648 5643 5639 5636 5630 5624 5616 5605 5597 5589 5587 5585 5583 5582 5580 5578 5577 5577 5575 5575 5574 5572 5571 5568 5566 5563 5560 5557
5651 5653 5653 5651 5651 5652 5653 5656 5653 5651 5650 5649 5646 5645 5643 5640 5638 5635 5631 5627 5622 5616 5609 5601 5592 5585 5579 5577 5575 5573 5571 5569 5566 5566 5566 5564 5563 5562 5561 5559 5557 5554 5550 5546
5636 5637 5639 5640 5639 5637 5642 5643 5642 5641 5640 5638 5637 5636 5635 5632 5629 5626 5622 5619 5615 5608 5602 5595 5588 5578 5570 5568 5567 5565 5563 5560 5558 5555 5555 5554 5553 5552 5550 5548 5546 5543 5539 5534
5620 5622 5624 5624 5623 5629 5633 5631 5630 5630 5629 5627 5625 5624 5624 5621 5618 5616 5612 5610 5606 5601 5595 5589 5582 5574 5563 5557 5555 5553 5553 5551 5548 5545 5544 5543 5541 5540 5538 5537 5534 5530 5525 5523
5602 5604 5606 5608 5613 5619 5619 5618 5617 5616 5616 5615 5614 5613 5612 5610 5607 5606 5602 5600 5596 5592 5586 5581 5575 5569 5561 5552 5547 5544 5543 5542 5540 5537 5533 5531 5529 5528 5526 5523 5520 5517 5514 5512
5583 5587 5591 5596 5602 5604 5604 5604 5603 5604 5604 5603 5601 5600 5600 5598 5597 5594 5591 5589 5587 5583 5576 5572 5567 5562 5555 5548 5541 5536 5533 5532 5529 5527 5525 5521 5517 5516 5513 5510 5507 5505 5502 5501
5567 5575 5577 5583 5590 5588 5588 5590 5590 5589 5590 5591 5587 5588 5587 5588 5586 5581 5580 5579 5576 5573 5568 5563 5558 5554 5548 5541 5535 5529 5524 5520 5519 5517 5514 5511 5509 5505 5502 5499 5498 5494 5493 5488